Flag for Norway Weather past 2 weeks in Hamar, Norway

Now
29 °F

Chilly.


Feels Like: 25 °F
Forecast: 18 / 35 °F
Wind: 3 mph from Northwest

Location: Haugedalshogda

Current Time: Mar 3, 2015 at 10:41:10 AM

Latest Report: Mar 3, 2015 at 10:00 AM


Visibility: N/A

Pressure: 29.50 "Hg

Humidity: 85%

Dew point: 25 °F

Location of HamarLocation

Historic Weather in Hamar — Graph

°F

Hamar temperature yesterday

Maximum temperature yesterday: 36 °F (at 12:00 PM)
Minimum temperature yesterday: 31 °F (at 9:00 PM)
Average temperature yesterday: 34 °F

Past Weeks' High & Low Weather Summary

 TemperatureHumidityPressure
High45 °F (Feb 19, 12:00 PM)96% (Feb 21, 8:00 AM)30.44 "Hg (Feb 21, 8:00 AM)
Low6 °F (Feb 22, 11:00 PM)47% (Feb 20, 1:00 PM)29.00 "Hg (Feb 23, 3:00 PM)
Average31 °F87%29.55 "Hg
* Reported Feb 16 9:00 AM — Mar 3 9:00 AM, Hamar, Weather by CustomWeather, © 2015

Note: Actual official high and low records may vary slightly from our data, if they occured in-between our weather recording intervals... More about our weather records

Advertising

Hamar weather history for previous 24 hours

 ConditionsComfort  
Time TempWeatherWind HumidityBarometerVisibility
9:00 AM
Tue, Mar 3
28 °FChilly.5 mph86%29.47 "HgN/A
8:00 AM27 °FChilly.3 mph88%29.47 "HgN/A
7:00 AM28 °FChilly.5 mph87%29.44 "HgN/A
6:00 AM28 °FChilly.6 mph89%29.44 "HgN/A
5:00 AM29 °FChilly.5 mph90%29.44 "HgN/A
4:00 AM29 °FChilly.5 mph93%29.41 "HgN/A
3:00 AM30 °FChilly.5 mph93%29.41 "HgN/A
2:00 AM31 °FChilly.2 mph96%29.38 "HgN/A
1:00 AM31 °FChilly.1 mph96%29.38 "HgN/A
12:00 AM30 °FChilly.No wind96%29.38 "HgN/A
11:00 PM
Mon, Mar 2
31 °FChilly.1 mph96%29.35 "HgN/A
9:00 PM31 °FChilly.1 mph95%29.29 "HgN/A
8:00 PM32 °FChilly.2 mph95%29.29 "HgN/A
7:00 PM32 °FChilly.1 mph91%29.26 "HgN/A
6:00 PM33 °FChilly.2 mph90%29.23 "HgN/A
5:00 PM35 °FChilly.2 mph87%29.21 "HgN/A
4:00 PM36 °FChilly.1 mph86%29.18 "HgN/A
3:00 PM35 °FChilly.3 mph85%29.18 "HgN/A
2:00 PM36 °FChilly.5 mph81%29.15 "HgN/A
1:00 PM36 °FChilly.5 mph82%29.15 "HgN/A
12:00 PM36 °FChilly.3 mph81%29.12 "HgN/A
11:00 AM36 °FChilly.3 mph84%29.12 "HgN/A
10:00 AM35 °FChilly.3 mph87%29.09 "HgN/A
Weather by CustomWeather, © 2015

See weather overviewHow to use our weather pages